Starlink 30484

operational
NORAD ID: 57969 Int'l Des: 2023-151 Owner: SPXS Country: US Constellation: starlink
LEOCIRCULAR

About Starlink 30484

Description loading...

Live Position

Loading 3D Globe...

Upcoming Passes

Altitude History

Altitude vs Time

uPlot chart will show altitude changes over time

Two-Line Element Set

1 57969U 23151F 25251.62901970 .06776070 91938-5 81550-3 0 9997
2 57969 42.9866 227.4225 0003045 244.7061 115.3515 16.35420965 7260
Epoch: Sep 8, 2025 • Age: 137 hours

Current Status

Position data unavailable
Launch Date Sep 30, 2023
Age 1.9 years
Decay Date Sep 9, 2025
Type internet

Technical Details

Classification Payload
Mass 730.00 kg
Dry Mass 700.00 kg
Total Mass 730.00 kg
Length 0.30 m
Diameter 4.10 m
Span 29.00 m
Shape Box + pan
Manufacturer SPXS
Bus Type Starlink V2M
Phase Status Reentered
Owner/State SPXS/US

Large Constellations

Loading constellations...